7 * 24
多渠道服务支持
OPS 5117,又名NAVSTAR 5,是美国于1980年2月9日发射的一颗导航试验卫星,属于早期GPS全球定位系统的技术验证卫星,是NAVSTAR系列导航卫星的组成部分。它承担着验证卫星导航系统轨道设计、信号传输与定位精度的关键任务,为后续GPS全球组网积累了宝贵的工程经验,对全球卫星导航技术发展具有里程碑意义。
美国
(US)
| 数据来源 | 国际轨道数据 |
| 星历时间: | 2026-03-09T05:15:18+0800 5天前 查看轨道信息 |
| 半长轴: | 26559.007km |
| 偏心率: | 0.048683 |
| 轨道倾角: | 64.718° |
| 近地点辐角 | 205.122° |
| 升交点赤经 | 51.662° |
| 平近点角 | 335.537° |
| 近地点: | 18887.897km |
| 远地点: | 21473.843km |
| 周期: | 717.922分钟 |
| 每日圈数: | 2.005788 |